(514668) = 2005 UG271 = 2016 WD16

Discovered at Catalina on 2005-10-28 by CSS.

Orbit

Orbit type: Main Belt

Note: WebGL enabled browser required.

epoch2023-09-13.0
epoch JD2460200.5
perihelion date2020-04-22.78984
perihelion JD2458962.28984
argument of perihelion (°)324.17499
ascending node (°)64.97466
inclination (°)10.96668
eccentricity0.0901349
perihelion distance (AU)2.1485560
Tisserand w.r.t. Jupiter3.5
ΔV w.r.t. Earth (km/sec)9.7
semimajor axis (AU)2.3614007
mean anomaly (°)336.31301
mean daily motion (°/day)0.27161220
aphelion distance (AU)2.574
period (years)3.63
P-vector [x]0.86366489
P-vector [y]0.49533907
P-vector [z]0.09339251
Q-vector [x]-0.47367554
Q-vector [y]0.73418072
Q-vector [z]0.48642590
absolute magnitude17.64
phase slope0.15
uncertainty0
referenceMPO 780399
observations used188
oppositions10
arc length (days)8592
first opposition used2000
last opposition used2023
residual rms (arc-secs)0.78
perturbers coarse indicatorM-v
perturbers precise indicator003Ek
first observation date used2000-05-05.0
last observation date used2023-11-13.0
computer nameMPCLINUX
Minimum Orbit Intersection Distances (in AU)
for orbit epoch: 2460200.5, reference: E2023-VO2
Mercury1.81087
Venus1.42671
Earth1.16397
Mars0.6705
Jupiter2.81242
Saturn6.79879
Uranus15.963
Neptune27.6958

Observations

192 total observations over interval: 2000 05 05.344800 – 2023 11 13.312139
These data are available for download (format description).

Date (UT) J2000 RA J2000 Dec Magn Location Ref
2000 05 05.344800 13 26 06.339 +02 01 38.79 21.58 V 645 – Apache Point-Sloan Digital Sky Survey MPS 749487
2000 05 05.348272 13 26 06.151 +02 01 38.62 22.04   645 – Apache Point-Sloan Digital Sky Survey MPS 749487
2005 10 28.33015 02 15 33.62 +02 13 15.2 20.3 V 703 – Catalina Sky Survey MPS 149883
2005 10 28.33653 02 15 33.08 +02 13 16.8 19.4 V 703 – Catalina Sky Survey MPS 149883
2005 10 28.34289 02 15 32.79 +02 13 15.4 19.9 V 703 – Catalina Sky Survey MPS 149883
2005 10 28.34923 02 15 32.29 +02 13 15.9 19.6 V 703 – Catalina Sky Survey MPS 149883
2005 10 29.30384 02 14 29.14 +02 14 04.5 19.4 V G96 – Mt. Lemmon Survey MPS 149883
2005 10 29.31153 02 14 28.64 +02 14 05.1 19.7 V G96 – Mt. Lemmon Survey MPS 149883
2005 10 29.31921 02 14 28.14 +02 14 05.4 19.8 V G96 – Mt. Lemmon Survey MPS 149883
2005 10 29.32721 02 14 27.56 +02 14 06.0 19.8 V G96 – Mt. Lemmon Survey MPS 149883
2005 11 03.25742 02 09 04.28 +02 20 34.1 19.7 V 703 – Catalina Sky Survey MPS 312399
2005 11 03.26340 02 09 03.88 +02 20 34.6 19.4 V 703 – Catalina Sky Survey MPS 312399
2005 11 03.26933 02 09 03.56 +02 20 35.4 20.2 V 703 – Catalina Sky Survey MPS 312399
2005 11 03.27528 02 09 03.09 +02 20 36.5 19.8 V 703 – Catalina Sky Survey MPS 312399
2011 04 07.37424 14 46 39.30 -06 05 04.7   691 – Steward Observatory, Kitt Peak-Spacewatch MPS 749487
2011 04 07.39197 14 46 38.49 -06 05 02.1   691 – Steward Observatory, Kitt Peak-Spacewatch MPS 749487
2011 04 07.41315 14 46 37.44 -06 04 59.1   691 – Steward Observatory, Kitt Peak-Spacewatch MPS 749487
2014 02 10.55673 10 18 20.989 +29 46 51.43 21.0 i F51 – Pan-STARRS 1, Haleakala MPS 749487
2014 02 10.56899 10 18 20.184 +29 46 56.70 20.3 i F51 – Pan-STARRS 1, Haleakala MPS 749487
2014 02 10.58081 10 18 19.408 +29 47 01.72 20.9 i F51 – Pan-STARRS 1, Haleakala MPS 749487
2014 03 25.24768 09 41 05.875 +30 52 22.53 21.5 w F51 – Pan-STARRS 1, Haleakala MPS 749487
2014 03 25.25961 09 41 05.573 +30 52 19.80 21.2 w F51 – Pan-STARRS 1, Haleakala MPS 749487
2014 03 25.27155 09 41 05.293 +30 52 17.00 21.3 w F51 – Pan-STARRS 1, Haleakala MPS 749487
2014 03 25.28362 09 41 05.000 +30 52 14.50 21.6 w F51 – Pan-STARRS 1, Haleakala MPS 749487
2016 10 12.57998 03 54 10.439 +12 52 18.71 20.6 w F51 – Pan-STARRS 1, Haleakala MPS 749626
2016 10 12.59162 03 54 10.119 +12 52 20.10 20.6 w F51 – Pan-STARRS 1, Haleakala MPS 749626
2016 11 05.24781 03 35 23.78 +13 41 46.3 19.7 V G96 – Mt. Lemmon Survey MPS 749626
2016 11 05.25207 03 35 23.50 +13 41 46.9 19.8 V G96 – Mt. Lemmon Survey MPS 749626
2016 11 05.25635 03 35 23.20 +13 41 47.4 19.6 V G96 – Mt. Lemmon Survey MPS 749626
2016 11 05.26237 03 35 22.77 +13 41 48.5 19.4 V G96 – Mt. Lemmon Survey MPS 749626
2016 11 10.42031 03 29 33.25 +13 53 40.8 21.2 R 926 – Tenagra II Observatory, Nogales MPS 749487
2016 11 10.43003 03 29 32.48 +13 53 41.5 21.4 R 926 – Tenagra II Observatory, Nogales MPS 749487
2016 11 10.43975 03 29 31.67 +13 53 43.4 21.1 R 926 – Tenagra II Observatory, Nogales MPS 749487
2016 11 11.31760 03 28 31.10 +13 55 48.9   691 – Steward Observatory, Kitt Peak-Spacewatch MPS 749626
2016 11 11.32781 03 28 30.36 +13 55 49.9   691 – Steward Observatory, Kitt Peak-Spacewatch MPS 749626
2016 11 11.33812 03 28 29.63 +13 55 51.6   691 – Steward Observatory, Kitt Peak-Spacewatch MPS 749626
2016 11 18.36264 03 20 17.77 +14 13 36.3 20.2 V 691 – Steward Observatory, Kitt Peak-Spacewatch MPS 747772
2016 11 18.37015 03 20 17.23 +14 13 37.3 19.5 V G96 – Mt. Lemmon Survey MPS 749626
2016 11 18.37179 03 20 17.14 +14 13 37.4 19.7 V 691 – Steward Observatory, Kitt Peak-Spacewatch MPS 747772
2016 11 18.37445 03 20 16.97 +14 13 37.1 19.5 V G96 – Mt. Lemmon Survey MPS 749626
2016 11 18.37881 03 20 16.59 +14 13 38.7 20.1 V G96 – Mt. Lemmon Survey MPS 749626
2016 11 18.38093 03 20 16.44 +14 13 39.3 20.1 V 691 – Steward Observatory, Kitt Peak-Spacewatch MPS 747772
2016 11 18.38309 03 20 16.35 +14 13 39.1 19.8 V G96 – Mt. Lemmon Survey MPS 749626
2016 11 19.45050 03 19 02.12 +14 16 31.2 20.1 V 691 – Steward Observatory, Kitt Peak-Spacewatch MPS 747772
2016 11 19.45922 03 19 01.50 +14 16 32.5 20.3 V 691 – Steward Observatory, Kitt Peak-Spacewatch MPS 747772
2016 11 19.46792 03 19 00.89 +14 16 33.7 20.4 V 691 – Steward Observatory, Kitt Peak-Spacewatch MPS 747772
2016 11 29.46907 03 08 08.312 +14 46 11.31 20.3 w F51 – Pan-STARRS 1, Haleakala MPS 749626
2016 11 29.48025 03 08 07.615 +14 46 13.48 20.2 w F51 – Pan-STARRS 1, Haleakala MPS 749626
2016 11 29.49142 03 08 06.929 +14 46 15.42 20.2 w F51 – Pan-STARRS 1, Haleakala MPS 749626
2016 12 06.23969 03 01 58.59 +15 09 36.8 20.2 V G96 – Mt. Lemmon Survey MPS 749487
2016 12 06.24397 03 01 58.33 +15 09 38.3 19.6 V G96 – Mt. Lemmon Survey MPS 749487
2016 12 06.25253 03 01 57.70 +15 09 38.6 18.5 V G96 – Mt. Lemmon Survey MPS 749487
2016 12 18.11284 02 54 35.02 +15 58 48.4 20.3 V G96 – Mt. Lemmon Survey MPS 752834
2016 12 18.11712 02 54 34.86 +15 58 49.7 20.4 V G96 – Mt. Lemmon Survey MPS 752834
2016 12 18.12140 02 54 34.78 +15 58 51.5 20.8 V G96 – Mt. Lemmon Survey MPS 752834
2016 12 18.12568 02 54 34.66 +15 58 52.7 20.6 V G96 – Mt. Lemmon Survey MPS 752834
2018 03 17.34260 13 06 02.70 +09 28 33.9 21.1 G G96 – Mt. Lemmon Survey MPS 876086
2018 03 17.34776 13 06 02.44 +09 28 36.0 20.9 G G96 – Mt. Lemmon Survey MPS 876086
2018 03 17.35291 13 06 02.15 +09 28 37.6 21.5 G G96 – Mt. Lemmon Survey MPS 876086
2018 03 17.35805 13 06 01.86 +09 28 38.5 21.5 G G96 – Mt. Lemmon Survey MPS 876086
2018 03 18.46528 13 05 03.37 +09 34 33.6 21.3 G G96 – Mt. Lemmon Survey MPS 876086
2018 03 18.47041 13 05 03.11 +09 34 34.5 21.3 G G96 – Mt. Lemmon Survey MPS 876086
2018 03 18.47556 13 05 02.81 +09 34 36.4 22.4 G G96 – Mt. Lemmon Survey MPS 876086
2018 03 18.48070 13 05 02.53 +09 34 38.5 21.9 G G96 – Mt. Lemmon Survey MPS 876086
2018 04 12.27548 12 40 42.86 +11 04 40.6 21.6 G G96 – Mt. Lemmon Survey MPS 881746
2018 04 12.28062 12 40 42.56 +11 04 41.6 21.4 G G96 – Mt. Lemmon Survey MPS 881746
2018 04 12.28580 12 40 42.27 +11 04 42.3 21.1 G G96 – Mt. Lemmon Survey MPS 881746
2018 04 12.29095 12 40 41.93 +11 04 42.1 20.8 G G96 – Mt. Lemmon Survey MPS 881746
2018 04 12.30097 12 40 41.576 +11 04 43.96 21.1 w F51 – Pan-STARRS 1, Haleakala MPS 881746
2018 04 12.33366 12 40 39.656 +11 04 46.87 21.1 w F51 – Pan-STARRS 1, Haleakala MPS 881746
2019 07 05.51679 21 12 29.321 -31 44 30.14 20.9 w F51 – Pan-STARRS 1, Haleakala MPS 1012499
2019 07 05.52774 21 12 28.953 -31 44 36.54 21.1 w F51 – Pan-STARRS 1, Haleakala MPS 1012499
2019 07 05.53871 21 12 28.575 -31 44 42.42 21.2 w F51 – Pan-STARRS 1, Haleakala MPS 1012499
2019 07 05.54965 21 12 28.196 -31 44 48.55 21.1 w F51 – Pan-STARRS 1, Haleakala MPS 1012499
2020 12 11.47827 08 03 30.226 +31 10 46.27 20.9 w F52 – Pan-STARRS 2, Haleakala MPS 1328179
2020 12 11.48913 08 03 29.909 +31 10 52.25 21.1 w F52 – Pan-STARRS 2, Haleakala MPS 1328179
2020 12 11.51092 08 03 29.219 +31 11 03.60 21.2 w F52 – Pan-STARRS 2, Haleakala MPS 1328179
2020 12 17.360894 08 00 03.73 +32 03 26.0 21.08 G G96 – Mt. Lemmon Survey MPS 1328179
2020 12 17.366233 08 00 03.50 +32 03 29.2 20.80 G G96 – Mt. Lemmon Survey MPS 1328179
2020 12 17.371606 08 00 03.27 +32 03 32.0 20.89 G G96 – Mt. Lemmon Survey MPS 1328179
2020 12 17.376967 08 00 03.04 +32 03 34.9 21.19 G G96 – Mt. Lemmon Survey MPS 1328179
2020 12 24.420448 07 54 19.098 +33 06 43.19 20.66 i F51 – Pan-STARRS 1, Haleakala MPS 1436776
2020 12 24.432824 07 54 18.362 +33 06 49.94 20.49 i F51 – Pan-STARRS 1, Haleakala MPS 1436776
2020 12 24.445220 07 54 17.652 +33 06 56.61 20.84 i F51 – Pan-STARRS 1, Haleakala MPS 1436776
2020 12 25.36349 07 53 25.980 +33 14 59.28 20.7 i F51 – Pan-STARRS 1, Haleakala MPS 1328179
2020 12 25.37917 07 53 25.067 +33 15 07.70 20.8 i F51 – Pan-STARRS 1, Haleakala MPS 1328179
2020 12 25.41045 07 53 23.192 +33 15 24.48 20.5 i F51 – Pan-STARRS 1, Haleakala MPS 1328179
2020 12 26.39151 07 52 26.136 +33 23 56.40 20.4 i F51 – Pan-STARRS 1, Haleakala MPS 1328179
2020 12 26.40452 07 52 25.337 +33 24 03.18 20.6 i F51 – Pan-STARRS 1, Haleakala MPS 1328179
2020 12 26.43051 07 52 23.749 +33 24 17.23 20.7 i F51 – Pan-STARRS 1, Haleakala MPS 1328179
2021 01 04.406356 07 42 36.37 +34 37 03.7 20.88 G G96 – Mt. Lemmon Survey MPS 1344605
2021 01 04.411515 07 42 35.99 +34 37 06.3 20.48 G G96 – Mt. Lemmon Survey MPS 1344605
2021 01 04.416674 07 42 35.63 +34 37 08.3 20.73 G G96 – Mt. Lemmon Survey MPS 1344605
2021 01 06.321102 07 40 20.00 +34 50 57.5 21.22 G G96 – Mt. Lemmon Survey MPS 1344605
